sat.trackr.live / text

‹ back to catalog

STARLINK-4376

NORAD 53216 · 2022-084AD

PAYLOAD ACTIVE UNKNOWN

§ Identity

Operator
Country
US
Launch date
2022-07-22
Launch site
AFWTR
Launch vehicle
Mass (kg)
RCS (m²)

Purposes: comms

External: N2YO · Heavens-Above · Gunter

§ Orbital elements

Epoch: 2026-05-25T03:42:48.665088Z

Period
95.64 min
Inclination
97.4457°
Eccentricity
0.0000366
Mean motion
15.05712197 rev/d
Perigee alt
549.1 km
Apogee alt
549.6 km
Semi-major
6,927.5 km
B*
-8.3940e-4
RAAN
205.0944°
Arg perigee
114.7085°
Mean anomaly
245.4181°
Rev number
21,081

§ Raw data

STARLINK-43761 53216U 22084AD  26145.15472992 -.00012169  00000+0 -83940-3 0  99972 53216  97.4457 205.0944 0000366 114.7085 245.4181 15.05712197210815

JSON: /api/v1/satellites/53216 · /tle

For live sub-satellite position, see the globe view (requires WebGL).

§ Visibility from observer

Set your observer location to see the next 7 days of passes ≥ 10°. The values pass through the URL so the page stays shareable.

No JS? Fill the form by hand. The geolocation button needs JavaScript.